Powrót do katalogu

NANOACE

AktywnyNaukaSSO
NORAD 42844·PAYLOAD·🇺🇸 United States

Wystrzelony Jul 14, 2017 z Baikonur Cosmodrome

Loading…

Następne Przeloty (najbliższe 24 godziny)

TLE

ŚwieżeSource: Space-Track

Epoka: Sep 14, 2026, 10:33 UTC

1 42844U 17042V   26257.44026628  .00009446  00000-0  36653-3 0  9999
2 42844  97.3801  70.4568 0005207  67.1378 293.0410 15.26306515501681

Śledź NANOACE w czasie rzeczywistym z AllMySat

Download on the App Store